Flag for Luxembourg Weather past 2 weeks in Ettelbruck, Luxembourg

Now
49 °F

Passing clouds.


Feels Like: 48 °F
Forecast: 58 / 79 °F
Wind: 3 mph from Northeast

Location: Luxembourg / Luxembourg

Current Time: Jul 31, 2015 at 7:57:11 AM

Latest Report: Jul 31, 2015 at 7:00 AM


Visibility: 4 mi

Pressure: 30.13 "Hg

Humidity: 93%

Dew point: 47 °F

Location of EttelbruckLocation

Historic Weather in Ettelbruck — Graph

°F

Ettelbruck temperature yesterday

Maximum temperature yesterday: 63 °F (at 1:00 PM)
Minimum temperature yesterday: 46 °F (at 6:00 AM)
Average temperature yesterday: 56 °F

Past Weeks' High & Low Weather Summary

 TemperatureHumidityPressure
High90 °F (Jul 17, 5:00 PM)99% (Jul 19, 8:00 AM)30.14 "Hg (Jul 19, 8:00 AM)
Low46 °F (Jul 30, 6:00 AM)27% (Jul 16, 5:00 PM)29.63 "Hg (Jul 27, 7:00 AM)
Average66 °F67%29.91 "Hg
* Reported Jul 16 4:00 AM — Jul 31 4:00 AM, Ettelbruck, Weather by CustomWeather, © 2015

Note: Actual official high and low records may vary slightly from our data, if they occured in-between our weather recording intervals... More about our weather records

Advertising

Ettelbruck weather history for previous 24 hours

 ConditionsComfort  
Time TempWeatherWind HumidityBarometerVisibility
4:00 AM
Fri, Jul 31
48 °FCool.3 mph93%30.14 "Hg6 mi
3:00 AM49 °FCool.3 mph93%30.13 "Hg6 mi
1:00 AM49 °FClear.5 mph89%30.14 "Hg19 mi
12:00 AM50 °FPassing clouds.3 mph84%30.13 "Hg22 mi
10:00 PM
Thu, Jul 30
54 °FPassing clouds.3 mph74%30.09 "Hg25 mi
9:00 PM57 °FPassing clouds.3 mph65%30.08 "Hg25 mi
8:00 PM59 °FPartly sunny.3 mph64%30.05 "Hg22 mi
7:00 PM62 °FPartly sunny.5 mph55%30.03 "Hg22 mi
6:00 PM62 °FPartly sunny.5 mph49%30.03 "Hg22 mi
5:00 PM62 °FPartly sunny.5 mph56%30.02 "Hg22 mi
4:00 PM60 °FPartly sunny.8 mph53%30.02 "Hg22 mi
3:00 PM62 °FPartly sunny.7 mph55%30.01 "Hg22 mi
2:00 PM61 °FScattered clouds.7 mph57%30.01 "Hg34 mi
1:00 PM63 °FScattered clouds.5 mph51%30.01 "Hg34 mi
12:00 PM62 °FScattered clouds.6 mph56%30.01 "Hg34 mi
11:00 AM59 °FScattered clouds.5 mph65%30.01 "Hg34 mi
10:00 AM56 °FScattered clouds.5 mph76%30.02 "Hg34 mi
9:00 AM52 °FScattered clouds.5 mph84%30.03 "Hg34 mi
8:00 AM50 °FPassing clouds.2 mph82%30.02 "Hg34 mi
7:00 AM47 °FPassing clouds.2 mph87%30.02 "Hg19 mi
Weather by CustomWeather, © 2015

See weather overviewHow to use our weather pages